[[{"header":{"parameterUnit":"m.s-1","parameterCategory":1,"la1":30.2991,"la2":30.254,"lo1":-89.0895,"lo2":-89.0444,"dy":0.0017,"dx":0.0017,"nx":28,"ny":28,"refTime":"2025-01-08T09:00:00:Z","depth":0,"parameterNumber":2,"parameterNumberName":"U-component_of_WINDS"},"data":[0,0,0,0,0,0,0,0,0,0,0,0,0,0,0,0,0,0,0,0,0,0,0,0,0,0,0,0,0,0,0,0,0,0,0,0,0,0,0,0,0,0,0,0,0,0,0,0,0,0,0,0,0,0,0,0,0,0,-6.7652,-6.7652,0,-6.7659,-6.7659,-6.7659,-6.753,-6.7527,-6.7523,-6.752,-6.7528,-6.7532,-6.7535,0,0,0,0,0,0,0,0,0,0,0,0,0,-6.7526,-6.7529,-6.7652,-6.7652,-6.7652,-6.7659,-6.7659,-6.7659,-6.7531,-6.7527,-6.7522,-6.7518,-6.7527,-6.7531,-6.7536,0,0,0,0,0,0,0,0,0,0,0,0,0,-6.7562,-6.753,-6.7652,-6.7589,-6.7583,-6.7659,-6.7659,-6.7659,-6.7532,-6.7527,-6.7521,-6.7516,-6.7526,-6.7531,-6.7536,-6.7673,0,0,-6.7552,-6.7554,0,0,0,0,0,0,0,0,-6.756,-6.7567,-6.7598,-6.7593,-6.7587,-6.7588,-6.7618,-6.7664,-6.7533,-6.7551,-6.752,-6.7514,-6.7553,-6.7555,-6.7568,-6.7674,-6.7674,-6.7553,-6.7556,-6.7558,-6.7559,0,0,0,0,0,0,0,-6.7558,-6.7566,-6.7655,-6.7599,-6.7592,-6.756,-6.7559,-6.7626,-6.7581,-6.7549,-6.754,-6.7543,-6.7549,-6.7564,-6.7568,-6.7674,-6.7552,-6.7557,-6.756,-6.7562,-6.7888,-6.7893,0,0,0,0,0,0,-6.7564,-6.7564,-6.7654,-6.7655,-6.756,-6.7566,-6.7566,-6.7593,-6.758,-6.7573,-6.7547,-6.7537,-6.7557,-6.7562,-6.7567,-6.7723,-6.7558,-6.7563,-6.7566,-6.7882,-6.7889,-6.7895,0,0,0,0,0,0,-6.7562,-6.7573,-6.7654,-6.7607,-6.7615,-6.7574,-6.7606,-6.7596,-6.7611,-6.7578,-6.757,-6.757,-6.7553,-6.756,-6.7647,-6.7721,-6.7565,-6.757,-6.7876,-6.7884,-6.7892,-6.8038,0,0,0,0,0,0,-6.7558,-6.7573,-6.7625,-6.7609,-6.7618,-6.7734,-6.7611,-6.76,-6.762,-6.7606,-6.7598,-6.7592,-6.755,-6.764,-6.7652,-6.7726,-6.7574,-6.7869,-6.788,-6.7889,-6.8026,-6.805,-6.807,0,0,0,0,0,-6.7554,-6.7667,-6.7628,-6.764,-6.7682,-6.7739,-6.7744,-6.7693,-6.7627,-6.7678,-6.7657,-6.7592,-6.7713,-6.765,-6.7662,-6.7739,-6.7864,-6.7877,-6.7889,-6.8016,-6.8045,-6.807,0,0,0,0,0,0,-6.7693,-6.7663,-6.762,-6.7731,-6.7738,-6.7717,-6.7779,-6.7726,-6.7752,-6.7738,-6.7675,-6.7674,-6.777,-6.7764,-6.7695,-6.7869,-6.7776,-6.7792,-6.7869,-6.7896,-6.7918,-6.7916,-6.7578,0,0,0,0,0,-6.7736,-6.7785,-6.7757,-6.7857,-6.7863,-6.7821,-6.7844,-6.7804,-6.7809,-6.7812,-6.7797,-6.7804,-6.7843,-6.787,-6.7905,-6.8026,-6.802,-6.8085,-6.8107,-6.8126,-6.8138,-6.8198,-6.8225,-6.7936,-6.7936,-6.7935,0,0,-6.7826,-6.7816,-6.7851,-6.7884,-6.7885,-6.7935,-6.7824,-6.7884,-6.792,-6.7821,-6.79,-6.789,-6.7894,-6.7998,-6.8043,-6.7995,-6.8217,-6.8141,-6.8156,-6.8159,-6.8213,-6.8241,-6.8265,-6.7944,-6.7943,-6.7941,0,0,-6.8015,-6.8014,-6.8095,-6.8098,-6.81,-6.8071,-6.8091,-6.8078,-6.8067,-6.8146,-6.8071,-6.8114,-6.8184,-6.8188,-6.82,-6.839,-6.8329,-6.8403,-6.8518,-6.8577,-6.8599,-6.8619,-6.8682,-6.8706,-6.8417,-6.8418,-6.8418,0,-6.8126,-6.8199,-6.8144,-6.8206,-6.8222,-6.8135,-6.8215,-6.8221,-6.8235,-6.8247,-6.8195,-6.8278,-6.8275,-6.8376,-6.8422,-6.8437,-6.8455,-6.8402,-6.8601,-6.862,-6.8637,-6.8697,-6.8721,-6.8426,-6.8425,-6.8424,-6.8423,0,-6.8333,-6.8385,-6.8451,-6.8464,-6.8488,-6.856,-6.8515,-6.8545,-6.8504,-6.8481,-6.8561,-6.8555,-6.8584,-6.8607,-6.8568,-6.8702,-6.8672,-6.8612,-6.8516,-6.8674,-6.8729,-6.8752,-6.8438,-6.8435,-6.8433,-6.8431,0,0,-6.8607,-6.8588,-6.8613,-6.8616,-6.8612,-6.8651,-6.8719,-6.8747,-6.8772,-6.8786,-6.8838,-6.8899,-6.8842,-6.8856,-6.8817,-6.8869,-6.9014,-6.8801,-6.88,-6.8837,-6.9157,-6.9199,-6.9226,-6.8977,-6.8981,-6.8984,-6.9155,0,-6.8786,-6.8898,-6.885,-6.8966,-6.9011,-6.8929,-6.8988,-6.8991,-6.8972,-6.9007,-6.8986,-6.9028,-6.8952,-6.8959,-6.9008,-6.8987,-6.9077,-6.8974,-6.9022,-6.9025,-6.9018,-6.9255,-6.93,-6.9461,-6.9177,-6.918,-6.9183,0,-6.9009,-6.9028,-6.9149,-6.9134,-6.9151,-6.9204,-6.9224,-6.9261,-6.9263,-6.9245,-6.926,-6.9208,-6.9272,-6.9182,-6.9267,-6.9198,-6.9216,-6.9209,-6.9213,-6.9212,-6.911,-6.9255,-6.9512,-6.9534,-6.9217,-6.9214,-6.9212,0,-6.9189,-6.9247,-6.9325,-6.9332,-6.9318,-6.9356,-6.9353,-6.9349,-6.9369,-6.9388,-6.9399,-6.9426,-6.944,-6.9462,-6.9418,-6.9357,-6.9509,-6.9415,-6.9493,-6.9494,-6.9524,-6.9522,-6.9782,-6.9546,-6.9545,-6.9545,-6.9544,0,-6.9391,-6.9466,-6.9405,-6.9453,-6.9535,-6.948,-6.9563,-6.955,-6.9548,-6.9591,-6.9525,-6.9567,-6.951,-6.9546,-6.9514,-6.9587,-6.9596,-6.9581,-6.957,-6.9584,-6.9585,-6.959,-6.9576,-6.9551,-6.955,-6.9548,-6.9547,0,-6.9604,-6.9567,-6.9646,-6.9626,-6.9623,-6.9684,-6.9666,-6.9709,-6.9685,-6.9741,-6.9751,-6.9714,-6.9753,-6.9713,-6.9751,-6.9729,-6.9826,-6.9802,-6.9824,-6.9815,-6.9893,-6.9885,-7.0162,-7.0193,-6.9942,-6.9944,-6.9946,0,-6.9732,-6.9788,-6.9773,-6.9797,-6.9796,-6.9836,-6.9854,-6.9803,-6.9825,-6.9831,-6.9873,-6.9907,-6.993,-6.9996,-6.9973,-7.0,-6.9973,-7.0069,-6.9976,-6.9987,-6.9968,-6.9963,-6.9966,-7.0085,-7.0089,-7.0091,-7.0093,0,-6.9962,-6.994,-6.9969,-6.9992,-7.0015,-7.0031,-7.0041,-7.0065,-7.0012,-7.004,-7.0078,-7.0097,-7.0134,-7.0167,-7.0187,-7.0183,-7.0128,-7.0123,-7.0141,-7.0153,-7.0161,-7.0152,-6.9869,-7.0115,-7.0113,-7.0112,-7.011,-7.0109,-7.0132,-7.0176,-7.0172,-7.0206,-7.0208,-7.0219,-7.0257,-7.0238,-7.0269,-7.0294,-7.0263,-7.0309,-7.0309,-7.033,-7.0333,-7.0368,-7.0327,-7.0355,-7.0361,-7.0368,-7.0376,-7.0161,-7.0372,-7.0372,-7.0371,-7.037,-7.037,0,-7.0353,-7.0346,-7.0378,-7.0394,-7.042,-7.0368,-7.0377,-7.0402,-7.0443,-7.0447,-7.0471,-7.0514,-7.0546,-7.0525,-7.0552,-7.0584,-7.0559,-7.0592,-7.0586,-7.0585,-7.0414,-7.0393,-7.0611,-7.0611,-7.0611,-7.0611,-7.0611,-7.0611,-7.0471,-7.0541,-7.0519,-7.059,-7.0583,-7.0626,-7.0635,-7.0644,-7.0647,-7.0697,-7.0722,-7.0709,-7.0702,-7.0728,-7.0754,-7.0747,-7.0757,-7.0798,-7.0782,-7.0621,-7.0598,-7.0575,-7.0554,-7.0802,-7.0803,-7.0949,-7.095,-7.0951]},{"header":{"parameterUnit":"m.s-1","parameterCategory":1,"la1":30.2991,"la2":30.254,"lo1":-89.0895,"lo2":-89.0444,"dy":0.0017,"dx":0.0017,"nx":28,"ny":28,"refTime":"2025-01-08T09:00:00:Z","depth":0,"parameterNumber":3,"parameterNumberName":"V-component_of_WINDS"},"data":[0,0,0,0,0,0,0,0,0,0,0,0,0,0,0,0,0,0,0,0,0,0,0,0,0,0,0,0,0,0,0,0,0,0,0,0,0,0,0,0,0,0,0,0,0,0,0,0,0,0,0,0,0,0,0,0,0,0,-0.7449,-0.7448,0,-0.7328,-0.7326,-0.7325,-0.7379,-0.7382,-0.7385,-0.7388,-0.7254,-0.7248,-0.7242,0,0,0,0,0,0,0,0,0,0,0,0,0,-0.7714,-0.7709,-0.7449,-0.7447,-0.7446,-0.7328,-0.7326,-0.7325,-0.7378,-0.7382,-0.7386,-0.7389,-0.7256,-0.7249,-0.7241,0,0,0,0,0,0,0,0,0,0,0,0,0,-0.7596,-0.7707,-0.7449,-0.7459,-0.7458,-0.7328,-0.7326,-0.7324,-0.7377,-0.7382,-0.7387,-0.7391,-0.7259,-0.725,-0.724,-0.7091,0,0,-0.7211,-0.7207,0,0,0,0,0,0,0,0,-0.7603,-0.7586,-0.7459,-0.7458,-0.7457,-0.7373,-0.7371,-0.7246,-0.7376,-0.7408,-0.7388,-0.7393,-0.729,-0.7278,-0.7245,-0.7085,-0.7079,-0.721,-0.7204,-0.72,-0.7198,0,0,0,0,0,0,0,-0.7611,-0.7592,-0.7401,-0.7457,-0.7456,-0.7465,-0.7453,-0.7347,-0.7324,-0.7405,-0.7409,-0.7395,-0.729,-0.7254,-0.7242,-0.7077,-0.7211,-0.7202,-0.7196,-0.7192,-0.6777,-0.6772,0,0,0,0,0,0,-0.7621,-0.7598,-0.7405,-0.7397,-0.7543,-0.7456,-0.7443,-0.7395,-0.7326,-0.732,-0.7391,-0.7397,-0.7268,-0.7253,-0.7238,-0.7049,-0.72,-0.7192,-0.7186,-0.6782,-0.6776,-0.677,0,0,0,0,0,0,-0.7626,-0.7603,-0.741,-0.7499,-0.7475,-0.7447,-0.7393,-0.7391,-0.7355,-0.7315,-0.731,-0.7359,-0.7271,-0.7251,-0.7125,-0.7046,-0.7187,-0.7179,-0.6788,-0.678,-0.6773,-0.6677,0,0,0,0,0,0,-0.7634,-0.7605,-0.7551,-0.7497,-0.747,-0.7302,-0.7388,-0.7385,-0.7339,-0.7347,-0.7284,-0.7277,-0.7273,-0.7139,-0.7116,-0.7035,-0.7171,-0.6795,-0.6785,-0.6775,-0.6687,-0.6667,-0.665,0,0,0,0,0,-0.7643,-0.7529,-0.7548,-0.7524,-0.7403,-0.7298,-0.7282,-0.7282,-0.7333,-0.7275,-0.7249,-0.7279,-0.706,-0.7126,-0.71,-0.7015,-0.68,-0.6788,-0.6776,-0.6696,-0.6671,-0.665,0,0,0,0,0,0,-0.7573,-0.7523,-0.7543,-0.7409,-0.7358,-0.7308,-0.7236,-0.7257,-0.7188,-0.7198,-0.7198,-0.7183,-0.705,-0.7022,-0.7096,-0.6862,-0.6937,-0.6919,-0.6885,-0.6861,-0.6843,-0.6849,-0.7163,0,0,0,0,0,-0.7542,-0.7465,-0.7425,-0.731,-0.7283,-0.7264,-0.7218,-0.7222,-0.7168,-0.7145,-0.711,-0.7053,-0.697,-0.6915,-0.6838,-0.6686,-0.6667,-0.6614,-0.6596,-0.658,-0.6562,-0.6469,-0.6442,-0.673,-0.6731,-0.6731,0,0,-0.7477,-0.744,-0.7391,-0.7295,-0.7255,-0.7169,-0.7245,-0.7154,-0.7088,-0.7131,-0.7007,-0.6979,-0.6915,-0.6772,-0.6708,-0.6744,-0.6479,-0.6565,-0.6553,-0.6543,-0.6454,-0.6427,-0.6402,-0.6722,-0.6724,-0.6725,0,0,-0.7313,-0.7282,-0.7178,-0.7137,-0.7076,-0.7063,-0.7038,-0.6984,-0.6966,-0.6844,-0.6871,-0.6792,-0.6653,-0.6602,-0.6559,-0.637,-0.6391,-0.6345,-0.6244,-0.6153,-0.613,-0.611,-0.6033,-0.6006,-0.6329,-0.6329,-0.6328,0,-0.7238,-0.7114,-0.7122,-0.7025,-0.6978,-0.7016,-0.6906,-0.6865,-0.6781,-0.6745,-0.6788,-0.6607,-0.6568,-0.6409,-0.6362,-0.6329,-0.6294,-0.6349,-0.6134,-0.6113,-0.6094,-0.602,-0.5993,-0.6323,-0.6323,-0.6324,-0.6324,0,-0.702,-0.6934,-0.6857,-0.6774,-0.672,-0.6618,-0.6604,-0.6547,-0.6555,-0.6535,-0.6405,-0.6358,-0.6267,-0.6232,-0.624,-0.6071,-0.6094,-0.6136,-0.6209,-0.6061,-0.599,-0.5963,-0.6314,-0.6316,-0.6318,-0.6319,0,0,-0.6807,-0.6728,-0.6699,-0.6658,-0.6592,-0.6522,-0.6419,-0.6332,-0.6278,-0.6219,-0.6126,-0.6005,-0.604,-0.599,-0.5993,-0.5914,-0.5754,-0.5964,-0.5962,-0.5918,-0.5554,-0.5516,-0.5484,-0.5772,-0.5767,-0.5763,-0.5556,0,-0.663,-0.6452,-0.6453,-0.6285,-0.6199,-0.6231,-0.614,-0.6086,-0.6064,-0.5984,-0.596,-0.587,-0.593,-0.5898,-0.5822,-0.579,-0.568,-0.5806,-0.5677,-0.5672,-0.5683,-0.545,-0.5411,-0.5218,-0.553,-0.5525,-0.5522,0,-0.6401,-0.6332,-0.6155,-0.6095,-0.6059,-0.5977,-0.5892,-0.5819,-0.5756,-0.5745,-0.5687,-0.5699,-0.5587,-0.5669,-0.5509,-0.5594,-0.5542,-0.5518,-0.551,-0.5491,-0.5582,-0.5414,-0.5158,-0.5125,-0.5481,-0.5484,-0.5487,0,-0.6249,-0.6114,-0.5989,-0.5954,-0.5883,-0.5823,-0.579,-0.5732,-0.5677,-0.5603,-0.5565,-0.5479,-0.5429,-0.5359,-0.5344,-0.5408,-0.5179,-0.5264,-0.5159,-0.5159,-0.5104,-0.5105,-0.4825,-0.5085,-0.5086,-0.5086,-0.5087,0,-0.6047,-0.5935,-0.5919,-0.584,-0.5713,-0.5714,-0.5587,-0.5558,-0.5505,-0.5417,-0.5442,-0.5358,-0.5349,-0.526,-0.5248,-0.5111,-0.5091,-0.5073,-0.5069,-0.5065,-0.5066,-0.5024,-0.5033,-0.5079,-0.508,-0.5082,-0.5083,0,-0.5854,-0.584,-0.5703,-0.5647,-0.563,-0.5537,-0.5486,-0.5407,-0.5389,-0.5276,-0.5249,-0.5217,-0.5112,-0.5094,-0.4972,-0.4963,-0.4796,-0.4811,-0.4817,-0.4815,-0.4708,-0.4714,-0.4384,-0.4335,-0.4636,-0.4634,-0.4631,0,-0.5722,-0.5636,-0.5569,-0.5512,-0.5476,-0.5386,-0.5329,-0.5326,-0.5265,-0.5183,-0.5111,-0.5011,-0.4929,-0.476,-0.4722,-0.4626,-0.4633,-0.4524,-0.4618,-0.4613,-0.4618,-0.4619,-0.4606,-0.4502,-0.4499,-0.4497,-0.4495,0,-0.5484,-0.548,-0.5399,-0.5312,-0.5244,-0.5176,-0.5111,-0.5063,-0.505,-0.4979,-0.4873,-0.481,-0.4684,-0.4579,-0.4483,-0.4443,-0.4461,-0.4466,-0.4435,-0.4425,-0.4427,-0.4414,-0.4756,-0.4472,-0.4474,-0.4476,-0.4477,-0.4478,-0.531,-0.5231,-0.517,-0.5076,-0.5028,-0.4965,-0.4886,-0.4856,-0.4769,-0.4667,-0.467,-0.4551,-0.4483,-0.4356,-0.4309,-0.4212,-0.4246,-0.4204,-0.4191,-0.4178,-0.4162,-0.4451,-0.4196,-0.4197,-0.4197,-0.4198,-0.4198,0,-0.5064,-0.5026,-0.4941,-0.4848,-0.4772,-0.4804,-0.4732,-0.4664,-0.456,-0.4497,-0.4415,-0.4289,-0.4186,-0.414,-0.4037,-0.3968,-0.3973,-0.394,-0.3939,-0.3928,-0.4144,-0.4176,-0.3936,-0.3936,-0.3936,-0.3936,-0.3936,-0.3936,-0.4927,-0.4793,-0.4781,-0.4619,-0.4581,-0.4467,-0.4421,-0.4361,-0.4309,-0.4168,-0.4083,-0.4055,-0.3995,-0.3887,-0.3792,-0.378,-0.3736,-0.3696,-0.3687,-0.3888,-0.3914,-0.3939,-0.3969,-0.369,-0.3689,-0.3478,-0.3477,-0.3475]}]]